Location: Newark
(44.3248°N, 23.7839°E)
Time: 18:04:41
(UTC+00:00)

PRISM - Visible Passes

Search period start: 22 April 2024 00:00
Search period end: 02 May 2024 00:00
Orbit: 507 x 527 km, 98.2° (Epoch: 21 April)

Date Brightness Start Highest point End Pass type
(mag) Time Alt. Az. Time Alt. Az. Time Alt. Az.
22 Apr ? 18:06:47 10° SSE 18:10:30 81° ENE 18:14:14 10° NNW visible
23 Apr ? 17:52:20 10° SSE 17:55:57 52° ENE 17:59:36 10° N visible
23 Apr ? 19:28:58 10° WSW 19:30:16 11° W 19:31:34 10° WNW visible
24 Apr ? 19:12:59 10° SW 19:15:28 17° W 19:17:59 10° NW visible
25 Apr ? 18:57:32 10° SSW 19:00:39 25° W 19:03:47 10° NW visible
26 Apr ? 18:42:18 10° SSW 18:45:47 37° W 18:49:16 10° NNW visible
27 Apr ? 18:27:12 10° S 18:30:51 59° WSW 18:34:33 10° NNW visible
28 Apr ? 18:12:11 10° SSE 18:15:54 88° E 18:19:38 10° NNW visible
29 Apr ? 17:57:15 10° SSE 18:00:54 56° ENE 18:04:34 10° N visible
29 Apr ? 19:34:21 10° WSW 19:35:13 11° W 19:36:05 10° WNW visible
30 Apr ? 19:17:35 10° SW 19:19:58 16° W 19:22:20 10° NW visible
01 May ? 19:01:37 10° SSW 19:04:40 24° W 19:07:44 10° NW visible
